Home > Weather > Fort Worth > Past weeks

Flag for USA Weather for the Past 2 Weeks in Fort Worth, Texas, USA

Now
62 °F

Overcast.


Feels Like: 62 °F
Forecast: 62 / 76 °F
Wind: 8 mph from Northwest

Location: Meacham International Airport

Current Time: Apr 30, 2016 at 6:33:21 AM

Latest Report: Apr 30, 2016 at 5:53 AM


Visibility: 10 mi

Pressure: 29.70 "Hg

Humidity: 83%

Dew Point: 57 °F

Location of Fort WorthLocation

Historic Weather in Fort Worth — Graph

°F

Fort Worth Temperature Yesterday

Maximum temperature yesterday: 83 °F (at 12:53 PM)
Minimum temperature yesterday: 70 °F (at 10:53 PM)
Average temperature yesterday: 76 °F

High & Low Weather Summary for the Past Weeks

 TemperatureHumidityPressure
High86 °F (Apr 25, 3:53 PM)97% (Apr 17, 6:53 AM)30.15 "Hg (Apr 17, 6:53 AM)
Low54 °F (Apr 15, 6:57 AM)30% (Apr 27, 4:53 PM)29.49 "Hg (Apr 29, 6:53 PM)
Average71 °F70%29.87 "Hg
* Reported Apr 15 4:53 AM — Apr 30 4:53 AM, Fort Worth, Weather by CustomWeather, © 2016

Note: Actual official high and low records may vary slightly from our data, if they occured in-between our weather recording intervals... More about our weather records

Advertising

Fort Worth Weather History for the Previous 24 Hours

Scroll right to see more
 ConditionsComfort  
Time TempWeatherWind HumidityBarometerVisibility
4:53 AM
Sat, Apr 30
62 °FLow clouds.10 mph86%29.67 "Hg10 mi
3:53 AM63 °FLow clouds.8 mph90%29.63 "Hg9 mi
2:53 AM63 °FClear.10 mph90%29.63 "Hg10 mi
1:53 AM65 °FClear.13 mph85%29.61 "Hg10 mi
12:53 AM68 °FClear.13 mph78%29.61 "Hg10 mi
11:53 PM
Fri, Apr 29
70 °FClear.14 mph79%29.60 "Hg10 mi
10:53 PM70 °FClear.3 mph87%29.59 "Hg9 mi
9:53 PM72 °FPassing clouds.5 mph78%29.57 "Hg10 mi
8:53 PM73 °FSunny.10 mph79%29.54 "Hg10 mi
7:53 PM76 °FFog.8 mph88%29.53 "Hg6 mi
6:53 PM76 °FSunny.10 mph85%29.49 "Hg7 mi
5:53 PM72 °FPassing clouds.12 mph81%29.52 "Hg10 mi
4:53 PM73 °FThunderstorms. Mostly cloudy.10 mph81%29.54 "Hg7 mi
3:53 PM82 °FPartly sunny.3 mph72%29.53 "Hg6 mi
2:53 PM83 °FSunny.8 mph70%29.54 "Hg6 mi
1:53 PM82 °FThundershowers. Partly sunny.10 mph70%29.59 "Hg6 mi
12:53 PM83 °FScattered clouds.9 mph70%29.62 "Hg6 mi
11:53 AM80 °FCloudy.7 mph76%29.65 "Hg5 mi
10:53 AM79 °FCloudy.7 mph79%29.67 "Hg6 mi
9:53 AM78 °FMostly cloudy.10 mph79%29.66 "Hg6 mi
8:53 AM76 °FMostly cloudy.7 mph85%29.67 "Hg5 mi
8:00 AM76 °FMostly cloudy.9 mph82%29.69 "Hg6 mi
6:53 AM76 °FMostly cloudy.12 mph82%29.66 "Hg7 mi
Weather by CustomWeather, © 2016

See weather overviewHow to use our weather pages